,,,PA_Meas_PMT16A,,PR_Meas_QMR101_102,,RH_Meas_QMH101,,SR_Meas_QMS101,,TA_Meas_QMH101,,GenWind,,GenWind,
date,time,status,PA,status,PR,status,RH,status,SR,status,TA,status,DirAvg,status,SpdAvg,
2009-02-24, 00:00:04,VALID,1008.79,VALID,0,VALID,93.7968,VALID,0,VALID,23.4212,VALID,140,VALID,0.362109,
2009-02-24, 00:01:04,VALID,1008.76,VALID,0,VALID,93.8044,VALID,0,VALID,23.4212,VALID,140,VALID,0.378516,
2009-02-24, 00:02:04,VALID,1008.76,VALID,0,VALID,93.8044,VALID,0,VALID,23.4212,VALID,140,VALID,0.206641,
2009-02-24, 00:03:04,VALID,1008.74,VALID,0,VALID,93.8044,VALID,0,VALID,23.4017,VALID,140,VALID,0.206641,
2009-02-24, 00:04:04,VALID,1008.74,VALID,0,VALID,93.8349,VALID,0,VALID,23.4212,VALID,140,VALID,0.228516,
2009-02-24, 00:05:04,VALID,1008.72,VALID,0,VALID,93.8273,VALID,0,VALID,23.4212,VALID,97,VALID,0.741016,
2009-02-24, 00:06:04,VALID,1008.7,VALID,0,VALID,93.8349,VALID,0,VALID,23.4212,VALID,93,VALID,0.668359,
2009-02-24, 00:07:04,VALID,1008.67,VALID,0,VALID,93.8273,VALID,0,VALID,23.4407,VALID,96,VALID,0.329297,
2009-02-24, 00:08:04,VALID,1008.69,VALID,0,VALID,93.8425,VALID,0,VALID,23.4425,VALID,82,VALID,0.279687,
2009-02-24, 00:09:04,VALID,1008.68,VALID,0,VALID,93.8273,VALID,0,VALID,23.4212,VALID,82,VALID,0.319141,
2009-02-24, 00:10:04,VALID,1008.67,VALID,0,VALID,93.8273,VALID,0,VALID,23.4212,VALID,95,VALID,0.551172,
2009-02-24, 00:11:04,VALID,1008.65,VALID,0,VALID,93.8578,VALID,0,VALID,23.4212,VALID,95,VALID,0.349219,
2009-02-24, 00:12:04,VALID,1008.63,VALID,0,VALID,93.8502,VALID,0,VALID,23.4017,VALID,92,VALID,0.466406,
2009-02-24, 00:13:04,VALID,1008.64,VALID,0,VALID,93.8578,VALID,0,VALID,23.4212,VALID,99,VALID,0.43125,
2009-02-24, 00:14:04,VALID,1008.64,VALID,0,VALID,93.8502,VALID,0,VALID,23.4212,VALID,107,VALID,0.871484,
2009-02-24, 00:15:04,VALID,1008.64,VALID,0,VALID,93.8425,VALID,0,VALID,23.4017,VALID,102,VALID,0.554297,
2009-02-24, 00:16:04,VALID,1008.65,VALID,0,VALID,93.8502,VALID,0,VALID,23.4212,VALID,88,VALID,0.706641,
2009-02-24, 00:17:04,VALID,1008.64,VALID,0,VALID,93.8502,VALID,0,VALID,23.4017,VALID,90,VALID,0.435156,
2009-02-24, 00:18:04,VALID,1008.65,VALID,0,VALID,93.8654,VALID,0,VALID,23.4212,VALID,105,VALID,0.432813,
2009-02-24, 00:19:04,VALID,1008.64,VALID,0,VALID,93.8425,VALID,0,VALID,23.4212,VALID,105,VALID,0.000390625,
2009-02-24, 00:20:04,VALID,1008.64,VALID,0,VALID,93.8502,VALID,0,VALID,23.4017,VALID,135,VALID,0.582031,
2009-02-24, 00:21:04,VALID,1008.65,VALID,0,VALID,93.8425,VALID,0,VALID,23.4212,VALID,134,VALID,0.478906,
2009-02-24, 00:22:04,VALID,1008.64,VALID,0,VALID,93.8196,VALID,0,VALID,23.4017,VALID,127,VALID,0.371484,
2009-02-24, 00:23:04,VALID,1008.65,VALID,0,VALID,93.8273,VALID,0,VALID,23.4017,VALID,127,VALID,0.283203,
2009-02-24, 00:24:04,VALID,1008.62,VALID,0,VALID,93.812,VALID,0,VALID,23.4017,VALID,160,VALID,0.623438,
2009-02-24, 00:25:04,VALID,1008.62,VALID,0,VALID,93.7968,VALID,0,VALID,23.3628,VALID,160,VALID,0.119531,
2009-02-24, 00:26:04,VALID,1008.59,VALID,0,VALID,93.8196,VALID,0,VALID,23.3628,VALID,160,VALID,0.311719,
2009-02-24, 00:27:04,VALID,1008.6,VALID,0,VALID,93.7891,VALID,0,VALID,23.3433,VALID,160,VALID,0.246094,
2009-02-24, 00:28:04,VALID,1008.6,VALID,0,VALID,93.7891,VALID,0,VALID,23.3628,VALID,160,VALID,0,
2009-02-24, 00:29:04,VALID,1008.58,VALID,0,VALID,93.7739,VALID,0,VALID,23.3433,VALID,160,VALID,0.00351562,
2009-02-24, 00:30:04,VALID,1008.57,VALID,0,VALID,93.7968,VALID,0,VALID,23.3026,VALID,160,VALID,0.401953,
2009-02-24, 00:31:04,VALID,1008.57,VALID,0,VALID,93.7891,VALID,0,VALID,23.3433,VALID,165,VALID,0.441016,
2009-02-24, 00:32:04,VALID,1008.56,VALID,0,VALID,93.7891,VALID,0,VALID,23.3433,VALID,165,VALID,0.0683594,
2009-02-24, 00:33:04,VALID,1008.56,VALID,0,VALID,93.7891,VALID,0,VALID,23.3433,VALID,165,VALID,0.380078,
2009-02-24, 00:34:04,VALID,1008.56,VALID,0,VALID,93.8196,VALID,0,VALID,23.3628,VALID,171,VALID,0.391016,
2009-02-24, 00:35:04,VALID,1008.53,VALID,0,VALID,93.8044,VALID,0,VALID,23.3433,VALID,193,VALID,0.341797,
2009-02-24, 00:36:04,VALID,1008.52,VALID,0,VALID,93.8273,VALID,0,VALID,23.3433,VALID,193,VALID,0.235156,
2009-02-24, 00:37:04,VALID,1008.52,VALID,0,VALID,93.8273,VALID,0,VALID,23.3628,VALID,196,VALID,0.169922,
2009-02-24, 00:38:04,VALID,1008.49,VALID,0,VALID,93.8273,VALID,0,VALID,23.3628,VALID,196,VALID,0,
2009-02-24, 00:39:04,VALID,1008.48,VALID,0,VALID,93.8349,VALID,0,VALID,23.3415,VALID,196,VALID,0,
2009-02-24, 00:40:04,VALID,1008.49,VALID,0,VALID,93.8273,VALID,0,VALID,23.3433,VALID,196,VALID,0,
2009-02-24, 00:41:04,VALID,1008.44,VALID,0,VALID,93.8349,VALID,0,VALID,23.3433,VALID,196,VALID,0,
2009-02-24, 00:42:04,VALID,1008.42,VALID,0,VALID,93.8349,VALID,0,VALID,23.3433,VALID,196,VALID,0,
2009-02-24, 00:43:04,VALID,1008.42,VALID,0,VALID,93.8273,VALID,0,VALID,23.3433,VALID,196,VALID,0,
2009-02-24, 00:44:04,VALID,1008.41,VALID,0,VALID,93.8502,VALID,0,VALID,23.3433,VALID,196,VALID,0,
2009-02-24, 00:45:04,VALID,1008.39,VALID,0,VALID,93.8273,VALID,0,VALID,23.3628,VALID,196,VALID,0,
2009-02-24, 00:46:04,VALID,1008.4,VALID,0,VALID,93.8044,VALID,0,VALID,23.3433,VALID,196,VALID,0,
2009-02-24, 00:47:04,VALID,1008.37,VALID,0,VALID,93.8349,VALID,0,VALID,23.3433,VALID,196,VALID,0,
2009-02-24, 00:48:04,VALID,1008.36,VALID,0,VALID,93.812,VALID,0,VALID,23.3433,VALID,196,VALID,0,
2009-02-24, 00:49:04,VALID,1008.36,VALID,0,VALID,93.8425,VALID,0,VALID,23.3238,VALID,196,VALID,0,
2009-02-24, 00:50:04,VALID,1008.33,VALID,0,VALID,93.8273,VALID,0,VALID,23.3433,VALID,196,VALID,0,
2009-02-24, 00:51:04,VALID,1008.36,VALID,0,VALID,93.8425,VALID,0,VALID,23.3628,VALID,196,VALID,0,
2009-02-24, 00:52:04,VALID,1008.35,VALID,0,VALID,93.8349,VALID,0,VALID,23.3628,VALID,196,VALID,0,
2009-02-24, 00:53:04,VALID,1008.32,VALID,0,VALID,93.8425,VALID,0,VALID,23.3433,VALID,196,VALID,0,
2009-02-24, 00:54:04,VALID,1008.29,VALID,0,VALID,93.8502,VALID,0,VALID,23.3628,VALID,196,VALID,0,
2009-02-24, 00:55:04,VALID,1008.29,VALID,0,VALID,93.8349,VALID,0,VALID,23.3628,VALID,196,VALID,0,
2009-02-24, 00:56:04,VALID,1008.26,VALID,0,VALID,93.8502,VALID,0,VALID,23.3433,VALID,196,VALID,0,
2009-02-24, 00:57:04,VALID,1008.26,VALID,0,VALID,93.8349,VALID,0,VALID,23.3433,VALID,196,VALID,0,
2009-02-24, 00:58:04,VALID,1008.24,VALID,0,VALID,93.8196,VALID,0,VALID,23.322,VALID,196,VALID,0,
2009-02-24, 00:59:04,VALID,1008.21,VALID,0,VALID,93.8425,VALID,0,VALID,23.3433,VALID,192,VALID,0,
2009-02-24, 01:00:04,VALID,1008.24,VALID,0,VALID,93.8425,VALID,0,VALID,23.3238,VALID,140,VALID,0.488281,
2009-02-24, 01:01:04,VALID,1008.2,VALID,0,VALID,93.8196,VALID,0,VALID,23.3026,VALID,140,VALID,0.357812,
2009-02-24, 01:02:04,VALID,1008.17,VALID,0,VALID,93.8349,VALID,0,VALID,23.3026,VALID,139,VALID,0.464063,
2009-02-24, 01:03:04,VALID,1008.17,VALID,0,VALID,93.8349,VALID,0,VALID,23.3026,VALID,139,VALID,0.421484,
2009-02-24, 01:04:04,VALID,1008.13,VALID,0,VALID,93.8273,VALID,0,VALID,23.3433,VALID,139,VALID,0.433203,
2009-02-24, 01:05:04,VALID,1008.11,VALID,0,VALID,93.8425,VALID,0,VALID,23.3238,VALID,98,VALID,0.424609,
2009-02-24, 01:06:04,VALID,1008.1,VALID,0,VALID,93.8273,VALID,0,VALID,23.3645,VALID,97,VALID,0.340234,
2009-02-24, 01:07:04,VALID,1008.08,VALID,0,VALID,93.8273,VALID,0,VALID,23.3433,VALID,70,VALID,0.514453,
2009-02-24, 01:08:04,VALID,1008.06,VALID,0,VALID,93.8273,VALID,0,VALID,23.3026,VALID,70,VALID,0.453906,
2009-02-24, 01:09:04,VALID,1008.05,VALID,0,VALID,93.8044,VALID,0,VALID,23.3238,VALID,70,VALID,0.374219,
2009-02-24, 01:10:04,VALID,1008.05,VALID,0,VALID,93.8044,VALID,0,VALID,23.2831,VALID,74,VALID,0.379687,
2009-02-24, 01:11:04,VALID,1008.03,VALID,0,VALID,93.7968,VALID,0,VALID,23.3043,VALID,83,VALID,0.586328,
2009-02-24, 01:12:04,VALID,1008.01,VALID,0,VALID,93.7891,VALID,0,VALID,23.3043,VALID,92,VALID,0.427734,
2009-02-24, 01:13:04,VALID,1008.01,VALID,0,VALID,93.7739,VALID,0,VALID,23.3043,VALID,94,VALID,0.591016,
2009-02-24, 01:14:04,VALID,1008.03,VALID,0,VALID,93.7891,VALID,0,VALID,23.3043,VALID,91,VALID,0.516016,
2009-02-24, 01:15:04,VALID,1008.02,VALID,0,VALID,93.7815,VALID,0,VALID,23.2831,VALID,91,VALID,0.448828,
2009-02-24, 01:16:04,VALID,1008.04,VALID,0,VALID,93.7891,VALID,0,VALID,23.3043,VALID,85,VALID,0.55625,
2009-02-24, 01:17:04,VALID,1008.03,VALID,0,VALID,93.7815,VALID,0,VALID,23.3043,VALID,83,VALID,0.489844,
2009-02-24, 01:18:04,VALID,1008.01,VALID,0,VALID,93.8044,VALID,0,VALID,23.3043,VALID,83,VALID,0.364453,
2009-02-24, 01:19:04,VALID,1008.01,VALID,0,VALID,93.7739,VALID,0,VALID,23.3043,VALID,80,VALID,0.569141,
2009-02-24, 01:20:04,VALID,1008.01,VALID,0,VALID,93.7815,VALID,0,VALID,23.2831,VALID,76,VALID,0.394141,
2009-02-24, 01:21:04,VALID,1007.97,VALID,0,VALID,93.7815,VALID,0,VALID,23.2831,VALID,71,VALID,0.638672,
2009-02-24, 01:22:04,VALID,1007.98,VALID,0,VALID,93.7815,VALID,0,VALID,23.2848,VALID,71,VALID,0.569922,
2009-02-24, 01:23:04,VALID,1007.95,VALID,0,VALID,93.7891,VALID,0,VALID,23.2848,VALID,81,VALID,0.329688,
2009-02-24, 01:24:04,VALID,1007.97,VALID,0,VALID,93.7815,VALID,0,VALID,23.2848,VALID,81,VALID,0.280859,
2009-02-24, 01:25:04,VALID,1007.94,VALID,0,VALID,93.7739,VALID,0,VALID,23.2848,VALID,76,VALID,0.419141,
2009-02-24, 01:26:04,VALID,1007.94,VALID,0,VALID,93.7739,VALID,0,VALID,23.2441,VALID,75,VALID,0.521875,
2009-02-24, 01:27:04,VALID,1007.93,VALID,0,VALID,93.7815,VALID,0,VALID,23.2654,VALID,75,VALID,0.316797,
2009-02-24, 01:28:04,VALID,1007.9,VALID,0,VALID,93.7815,VALID,0,VALID,23.2459,VALID,75,VALID,0.185937,
2009-02-24, 01:29:04,VALID,1007.86,VALID,0,VALID,93.7663,VALID,0,VALID,23.2654,VALID,73,VALID,0.151953,
2009-02-24, 01:30:04,VALID,1007.85,VALID,0,VALID,93.7891,VALID,0,VALID,23.2459,VALID,73,VALID,0.207422,
2009-02-24, 01:31:04,VALID,1007.83,VALID,0,VALID,93.7968,VALID,0,VALID,23.2459,VALID,73,VALID,0,
2009-02-24, 01:32:04,VALID,1007.81,VALID,0,VALID,93.7891,VALID,0.105969,VALID,23.2246,VALID,73,VALID,0.344922,
2009-02-24, 01:33:04,VALID,1007.82,VALID,0,VALID,93.7815,VALID,0,VALID,23.2459,VALID,59,VALID,0.221875,
2009-02-24, 01:34:04,VALID,1007.77,VALID,0,VALID,93.7891,VALID,0,VALID,23.2264,VALID,59,VALID,0.271875,
2009-02-24, 01:35:04,VALID,1007.76,VALID,0,VALID,93.7891,VALID,0,VALID,23.2264,VALID,57,VALID,0.596094,
2009-02-24, 01:36:04,VALID,1007.76,VALID,0,VALID,93.7968,VALID,0,VALID,23.2069,VALID,57,VALID,0.404297,
2009-02-24, 01:37:04,VALID,1007.73,VALID,0,VALID,93.8196,VALID,0,VALID,23.2264,VALID,84,VALID,0.645703,
2009-02-24, 01:38:04,VALID,1007.72,VALID,0,VALID,93.8196,VALID,0,VALID,23.2069,VALID,77,VALID,0.687891,
2009-02-24, 01:39:04,VALID,1007.71,VALID,0,VALID,93.8273,VALID,0,VALID,23.1857,VALID,76,VALID,0.194922,
2009-02-24, 01:40:04,VALID,1007.71,VALID,0,VALID,93.8349,VALID,0,VALID,23.2069,VALID,76,VALID,0,
2009-02-24, 01:41:04,VALID,1007.66,VALID,0,VALID,93.8196,VALID,0,VALID,23.1857,VALID,76,VALID,0,
2009-02-24, 01:42:04,VALID,1007.64,VALID,0,VALID,93.8196,VALID,0,VALID,23.1874,VALID,38,VALID,0.123828,
2009-02-24, 01:43:04,VALID,1007.66,VALID,0,VALID,93.8349,VALID,0,VALID,23.1662,VALID,35,VALID,0.416016,
2009-02-24, 01:44:04,VALID,1007.61,VALID,0,VALID,93.8349,VALID,0.105969,VALID,23.1662,VALID,46,VALID,0.288672,
2009-02-24, 01:45:04,VALID,1007.6,VALID,0,VALID,93.8425,VALID,0,VALID,23.1874,VALID,43,VALID,0.371094,
2009-02-24, 01:46:04,VALID,1007.58,VALID,0,VALID,93.8425,VALID,0,VALID,23.1467,VALID,47,VALID,0.496484,
2009-02-24, 01:47:04,VALID,1007.55,VALID,0,VALID,93.8349,VALID,0,VALID,23.1485,VALID,48,VALID,0.209766,
2009-02-24, 01:48:04,VALID,1007.52,VALID,0,VALID,93.8654,VALID,0,VALID,23.1272,VALID,40,VALID,0.476953,
2009-02-24, 01:49:04,VALID,1007.5,VALID,0,VALID,93.8654,VALID,0.105969,VALID,23.1485,VALID,41,VALID,0.0464844,
2009-02-24, 01:50:04,VALID,1007.49,VALID,0,VALID,93.8502,VALID,0,VALID,23.129,VALID,37,VALID,0.327344,
2009-02-24, 01:51:04,VALID,1007.49,VALID,0,VALID,93.873,VALID,0.105969,VALID,23.1095,VALID,32,VALID,0.350781,
2009-02-24, 01:52:04,VALID,1007.46,VALID,0,VALID,93.8654,VALID,0,VALID,23.1077,VALID,52,VALID,0.519531,
2009-02-24, 01:53:04,VALID,1007.46,VALID,0,VALID,93.8807,VALID,0.105969,VALID,23.0883,VALID,70,VALID,0.379687,
2009-02-24, 01:54:04,VALID,1007.42,VALID,0,VALID,93.8959,VALID,0,VALID,23.09,VALID,71,VALID,0.532812,
2009-02-24, 01:55:04,VALID,1007.39,VALID,0,VALID,93.8883,VALID,0,VALID,23.0688,VALID,71,VALID,0.429297,
2009-02-24, 01:56:04,VALID,1007.41,VALID,0,VALID,93.9035,VALID,0,VALID,23.09,VALID,54,VALID,0.547266,
2009-02-24, 01:57:04,VALID,1007.43,VALID,0,VALID,93.9035,VALID,0,VALID,23.09,VALID,50,VALID,0.419531,
2009-02-24, 01:58:04,VALID,1007.4,VALID,0,VALID,93.934,VALID,0,VALID,23.0493,VALID,52,VALID,0.282813,
2009-02-24, 01:59:04,VALID,1007.39,VALID,0,VALID,93.9112,VALID,0,VALID,23.0493,VALID,74,VALID,0.286719,
2009-02-24, 02:00:04,VALID,1007.39,VALID,0,VALID,93.9264,VALID,0,VALID,23.0705,VALID,74,VALID,0,
2009-02-24, 02:01:04,VALID,1007.39,VALID,0,VALID,93.9493,VALID,0,VALID,23.0493,VALID,83,VALID,0.0992187,
2009-02-24, 02:02:04,VALID,1007.37,VALID,0,VALID,93.9493,VALID,0,VALID,23.0705,VALID,60,VALID,0.254687,
2009-02-24, 02:03:04,VALID,1007.4,VALID,0,VALID,93.9645,VALID,0,VALID,23.0298,VALID,60,VALID,0.00234375,
2009-02-24, 02:04:04,VALID,1007.39,VALID,0,VALID,93.9722,VALID,0.105969,VALID,23.0705,VALID,60,VALID,0.135547,
2009-02-24, 02:05:04,VALID,1007.4,VALID,0,VALID,93.9874,VALID,0.105969,VALID,23.0705,VALID,60,VALID,0.028125,
2009-02-24, 02:06:04,VALID,1007.38,VALID,0,VALID,94.0027,VALID,0,VALID,23.0705,VALID,60,VALID,0,
2009-02-24, 02:07:04,VALID,1007.38,VALID,0,VALID,93.9798,VALID,0,VALID,23.0298,VALID,60,VALID,0,
2009-02-24, 02:08:04,VALID,1007.4,VALID,0,VALID,94.0179,VALID,0,VALID,23.0298,VALID,60,VALID,0,
2009-02-24, 02:09:04,VALID,1007.41,VALID,0,VALID,94.0027,VALID,0,VALID,23.0511,VALID,60,VALID,0,
2009-02-24, 02:10:04,VALID,1007.4,VALID,0,VALID,94.0179,VALID,0,VALID,23.0298,VALID,60,VALID,0,
2009-02-24, 02:11:04,VALID,1007.42,VALID,0,VALID,94.0332,VALID,0,VALID,23.0316,VALID,60,VALID,0,
2009-02-24, 02:12:04,VALID,1007.41,VALID,0,VALID,94.0255,VALID,0,VALID,23.0316,VALID,60,VALID,0,
2009-02-24, 02:13:04,VALID,1007.44,VALID,0,VALID,94.0332,VALID,0,VALID,23.0511,VALID,60,VALID,0,
2009-02-24, 02:14:04,VALID,1007.42,VALID,0,VALID,94.0713,VALID,0,VALID,23.0723,VALID,60,VALID,0,
2009-02-24, 02:15:04,VALID,1007.4,VALID,0,VALID,94.0637,VALID,0,VALID,23.0511,VALID,60,VALID,0,
2009-02-24, 02:16:04,VALID,1007.37,VALID,0,VALID,94.056,VALID,0,VALID,23.0316,VALID,60,VALID,0,
2009-02-24, 02:17:04,VALID,1007.39,VALID,0,VALID,94.056,VALID,0,VALID,23.0511,VALID,60,VALID,0,
2009-02-24, 02:18:04,VALID,1007.4,VALID,0,VALID,94.0637,VALID,0,VALID,23.0316,VALID,60,VALID,0,
2009-02-24, 02:19:04,VALID,1007.38,VALID,0,VALID,94.0789,VALID,0,VALID,23.0316,VALID,60,VALID,0,
2009-02-24, 02:20:04,VALID,1007.38,VALID,0,VALID,94.0789,VALID,0,VALID,23.0316,VALID,60,VALID,0,
2009-02-24, 02:21:04,VALID,1007.38,VALID,0,VALID,94.0713,VALID,0,VALID,23.0103,VALID,60,VALID,0,
2009-02-24, 02:22:04,VALID,1007.41,VALID,0,VALID,94.0865,VALID,0,VALID,23.0316,VALID,60,VALID,0,
2009-02-24, 02:23:04,VALID,1007.41,VALID,0,VALID,94.0865,VALID,0,VALID,23.0121,VALID,60,VALID,0,
2009-02-24, 02:24:04,VALID,1007.39,VALID,0,VALID,94.1018,VALID,0,VALID,22.9909,VALID,60,VALID,0,
2009-02-24, 02:25:04,VALID,1007.41,VALID,0,VALID,94.0942,VALID,0,VALID,23.0121,VALID,60,VALID,0,
2009-02-24, 02:26:04,VALID,1007.44,VALID,0,VALID,94.0942,VALID,0,VALID,23.0121,VALID,60,VALID,0,
2009-02-24, 02:27:04,VALID,1007.43,VALID,0,VALID,94.0865,VALID,0,VALID,22.9731,VALID,60,VALID,0,
2009-02-24, 02:28:04,VALID,1007.45,VALID,0,VALID,94.0789,VALID,0,VALID,22.9519,VALID,60,VALID,0,
2009-02-24, 02:29:04,VALID,1007.41,VALID,0,VALID,94.0942,VALID,0,VALID,22.9731,VALID,60,VALID,0,
2009-02-24, 02:30:04,VALID,1007.43,VALID,0,VALID,94.1018,VALID,0,VALID,22.9926,VALID,60,VALID,0,
2009-02-24, 02:31:04,VALID,1007.45,VALID,0,VALID,94.0789,VALID,0,VALID,22.9926,VALID,60,VALID,0,
2009-02-24, 02:32:04,VALID,1007.44,VALID,0,VALID,94.1094,VALID,0,VALID,22.9926,VALID,60,VALID,0,
2009-02-24, 02:33:04,VALID,1007.44,VALID,0,VALID,94.1171,VALID,0,VALID,22.9731,VALID,60,VALID,0,
2009-02-24, 02:34:04,VALID,1007.45,VALID,0,VALID,94.1171,VALID,0,VALID,22.9731,VALID,60,VALID,0,
2009-02-24, 02:35:04,VALID,1007.49,VALID,0,VALID,94.1247,VALID,0,VALID,22.9926,VALID,60,VALID,0,
2009-02-24, 02:36:04,VALID,1007.47,VALID,0,VALID,94.1171,VALID,0,VALID,22.9731,VALID,60,VALID,0,
2009-02-24, 02:37:04,VALID,1007.47,VALID,0,VALID,94.1399,VALID,0,VALID,22.9731,VALID,60,VALID,0,
2009-02-24, 02:38:04,VALID,1007.48,VALID,0,VALID,94.1171,VALID,0,VALID,22.9519,VALID,60,VALID,0,
2009-02-24, 02:39:04,VALID,1007.49,VALID,0,VALID,94.1323,VALID,0,VALID,22.9731,VALID,44,VALID,0,
2009-02-24, 02:40:04,VALID,1007.49,VALID,0,VALID,94.1476,VALID,0,VALID,22.9731,VALID,43,VALID,0,
2009-02-24, 02:41:04,VALID,1007.5,VALID,0,VALID,94.1476,VALID,0,VALID,22.9731,VALID,42,VALID,0,
2009-02-24, 02:42:04,VALID,1007.48,VALID,0,VALID,94.1476,VALID,0,VALID,22.9926,VALID,42,VALID,0,
2009-02-24, 02:43:04,VALID,1007.49,VALID,0,VALID,94.1704,VALID,0,VALID,22.9714,VALID,42,VALID,0,
2009-02-24, 02:44:04,VALID,1007.47,VALID,0,VALID,94.1476,VALID,0,VALID,22.9731,VALID,42,VALID,0,
2009-02-24, 02:45:04,VALID,1007.48,VALID,0,VALID,94.1476,VALID,0,VALID,22.9519,VALID,42,VALID,0,
2009-02-24, 02:46:04,VALID,1007.47,VALID,0,VALID,94.1628,VALID,0,VALID,22.9536,VALID,42,VALID,0,
2009-02-24, 02:47:04,VALID,1007.47,VALID,0,VALID,94.1399,VALID,0,VALID,22.9324,VALID,42,VALID,0,
2009-02-24, 02:48:04,VALID,1007.44,VALID,0,VALID,94.1552,VALID,0,VALID,22.9536,VALID,42,VALID,0,
2009-02-24, 02:49:04,VALID,1007.44,VALID,0,VALID,94.1628,VALID,0,VALID,22.9342,VALID,42,VALID,0,
2009-02-24, 02:50:04,VALID,1007.43,VALID,0,VALID,94.1628,VALID,0,VALID,22.9342,VALID,42,VALID,0,
2009-02-24, 02:51:04,VALID,1007.4,VALID,0,VALID,94.1628,VALID,0,VALID,22.9342,VALID,42,VALID,0,
2009-02-24, 02:52:04,VALID,1007.4,VALID,0,VALID,94.1781,VALID,0,VALID,22.9342,VALID,32,VALID,0,
2009-02-24, 02:53:04,VALID,1007.4,VALID,0,VALID,94.1628,VALID,0,VALID,22.9129,VALID,32,VALID,0,
2009-02-24, 02:54:04,VALID,1007.37,VALID,0,VALID,94.1704,VALID,0,VALID,22.9536,VALID,32,VALID,0,
2009-02-24, 02:55:04,VALID,1007.35,VALID,0,VALID,94.1704,VALID,0,VALID,22.9536,VALID,32,VALID,0,
2009-02-24, 02:56:04,VALID,1007.34,VALID,0,VALID,94.1781,VALID,0,VALID,22.9342,VALID,32,VALID,0,
2009-02-24, 02:57:04,VALID,1007.34,VALID,0,VALID,94.1857,VALID,0,VALID,22.9342,VALID,32,VALID,0,
2009-02-24, 02:58:04,VALID,1007.29,VALID,0,VALID,94.1781,VALID,0,VALID,22.9147,VALID,32,VALID,0,
2009-02-24, 02:59:04,VALID,1007.28,VALID,0,VALID,94.1933,VALID,0,VALID,22.9147,VALID,32,VALID,0,
2009-02-24, 03:00:04,VALID,1007.26,VALID,0,VALID,94.1933,VALID,0,VALID,22.8952,VALID,32,VALID,0,
2009-02-24, 03:01:04,VALID,1007.25,VALID,0,VALID,94.1857,VALID,0,VALID,22.8952,VALID,32,VALID,0,
2009-02-24, 03:02:04,VALID,1007.27,VALID,0,VALID,94.1781,VALID,0,VALID,22.9147,VALID,32,VALID,0,
2009-02-24, 03:03:04,VALID,1007.24,VALID,0,VALID,94.2162,VALID,0,VALID,22.8952,VALID,32,VALID,0,
2009-02-24, 03:04:04,VALID,1007.22,VALID,0,VALID,94.1933,VALID,0,VALID,22.8952,VALID,32,VALID,0,
2009-02-24, 03:05:04,VALID,1007.21,VALID,0,VALID,94.2086,VALID,0,VALID,22.8952,VALID,32,VALID,0,
2009-02-24, 03:06:04,VALID,1007.21,VALID,0,VALID,94.1933,VALID,0,VALID,22.8952,VALID,31,VALID,0,
2009-02-24, 03:07:04,VALID,1007.21,VALID,0,VALID,94.2162,VALID,0,VALID,22.8757,VALID,31,VALID,0,
2009-02-24, 03:08:04,VALID,1007.2,VALID,0,VALID,94.2009,VALID,0,VALID,22.8757,VALID,31,VALID,0,
2009-02-24, 03:09:04,VALID,1007.23,VALID,0,VALID,94.2314,VALID,0,VALID,22.8545,VALID,31,VALID,0,
2009-02-24, 03:10:04,VALID,1007.23,VALID,0,VALID,94.2162,VALID,0,VALID,22.8952,VALID,31,VALID,0,
2009-02-24, 03:11:04,VALID,1007.22,VALID,0,VALID,94.2086,VALID,0,VALID,22.8545,VALID,31,VALID,0,
2009-02-24, 03:12:04,VALID,1007.21,VALID,0,VALID,94.2162,VALID,0,VALID,22.8562,VALID,31,VALID,0,
2009-02-24, 03:13:04,VALID,1007.25,VALID,0,VALID,94.2238,VALID,0,VALID,22.8562,VALID,31,VALID,0,
2009-02-24, 03:14:04,VALID,1007.26,VALID,0,VALID,94.2391,VALID,0,VALID,22.8368,VALID,31,VALID,0,
2009-02-24, 03:15:04,VALID,1007.29,VALID,0,VALID,94.2467,VALID,0,VALID,22.8368,VALID,31,VALID,0,
2009-02-24, 03:16:04,VALID,1007.26,VALID,0,VALID,94.2314,VALID,0,VALID,22.8368,VALID,31,VALID,0,
2009-02-24, 03:17:04,VALID,1007.27,VALID,0,VALID,94.2543,VALID,0,VALID,22.8368,VALID,31,VALID,0,
2009-02-24, 03:18:04,VALID,1007.23,VALID,0,VALID,94.2467,VALID,0.105969,VALID,22.8562,VALID,31,VALID,0,
2009-02-24, 03:19:04,VALID,1007.22,VALID,0,VALID,94.2391,VALID,0,VALID,22.8562,VALID,31,VALID,0,
2009-02-24, 03:20:04,VALID,1007.24,VALID,0,VALID,94.2543,VALID,0,VALID,22.8368,VALID,31,VALID,0,
2009-02-24, 03:21:04,VALID,1007.25,VALID,0,VALID,94.2619,VALID,0.105969,VALID,22.835,VALID,31,VALID,0,
2009-02-24, 03:22:04,VALID,1007.25,VALID,0,VALID,94.2619,VALID,0,VALID,22.835,VALID,31,VALID,0,
2009-02-24, 03:23:04,VALID,1007.25,VALID,0,VALID,94.2696,VALID,0.105969,VALID,22.8562,VALID,31,VALID,0,
2009-02-24, 03:24:04,VALID,1007.25,VALID,0,VALID,94.2696,VALID,0,VALID,22.8562,VALID,31,VALID,0,
2009-02-24, 03:25:04,VALID,1007.24,VALID,0,VALID,94.2772,VALID,0,VALID,22.8155,VALID,31,VALID,0,
2009-02-24, 03:26:04,VALID,1007.23,VALID,0,VALID,94.2772,VALID,0,VALID,22.8368,VALID,31,VALID,0,
2009-02-24, 03:27:04,VALID,1007.22,VALID,0,VALID,94.2772,VALID,0,VALID,22.8173,VALID,31,VALID,0,
2009-02-24, 03:28:04,VALID,1007.23,VALID,0,VALID,94.2924,VALID,0,VALID,22.8173,VALID,31,VALID,0,
2009-02-24, 03:29:04,VALID,1007.25,VALID,0,VALID,94.3153,VALID,0,VALID,22.8173,VALID,31,VALID,0,
2009-02-24, 03:30:04,VALID,1007.26,VALID,0,VALID,94.2543,VALID,0,VALID,22.8173,VALID,31,VALID,0,
2009-02-24, 03:31:04,VALID,1007.25,VALID,0,VALID,94.2924,VALID,0,VALID,22.7978,VALID,31,VALID,0,
2009-02-24, 03:32:04,VALID,1007.23,VALID,0,VALID,94.3001,VALID,0,VALID,22.7783,VALID,31,VALID,0,
2009-02-24, 03:33:04,VALID,1007.23,VALID,0,VALID,94.3077,VALID,0,VALID,22.7978,VALID,31,VALID,0,
2009-02-24, 03:34:04,VALID,1007.23,VALID,0,VALID,94.2924,VALID,0,VALID,22.7978,VALID,31,VALID,0,
2009-02-24, 03:35:04,VALID,1007.24,VALID,0,VALID,94.3229,VALID,0,VALID,22.7978,VALID,31,VALID,0,
2009-02-24, 03:36:04,VALID,1007.22,VALID,0,VALID,94.3153,VALID,0,VALID,22.7783,VALID,31,VALID,0,
2009-02-24, 03:37:04,VALID,1007.23,VALID,0,VALID,94.3306,VALID,0,VALID,22.7978,VALID,31,VALID,0,
2009-02-24, 03:38:04,VALID,1007.22,VALID,0,VALID,94.3382,VALID,0,VALID,22.7978,VALID,31,VALID,0,
2009-02-24, 03:39:04,VALID,1007.25,VALID,0,VALID,94.3382,VALID,0,VALID,22.7766,VALID,31,VALID,0,
2009-02-24, 03:40:04,VALID,1007.24,VALID,0,VALID,94.3306,VALID,0,VALID,22.7978,VALID,31,VALID,0,
2009-02-24, 03:41:04,VALID,1007.25,VALID,0,VALID,94.3382,VALID,0,VALID,22.7978,VALID,31,VALID,0,
2009-02-24, 03:42:04,VALID,1007.24,VALID,0,VALID,94.3229,VALID,0,VALID,22.7978,VALID,31,VALID,0,
2009-02-24, 03:43:04,VALID,1007.24,VALID,0,VALID,94.3534,VALID,0,VALID,22.7978,VALID,31,VALID,0,
2009-02-24, 03:44:04,VALID,1007.27,VALID,0,VALID,94.3687,VALID,0,VALID,22.7978,VALID,31,VALID,0,
2009-02-24, 03:45:04,VALID,1007.26,VALID,0,VALID,94.3611,VALID,0,VALID,22.7978,VALID,31,VALID,0,
2009-02-24, 03:46:04,VALID,1007.25,VALID,0,VALID,94.3534,VALID,0,VALID,22.7978,VALID,31,VALID,0,
2009-02-24, 03:47:04,VALID,1007.24,VALID,0,VALID,94.3687,VALID,0,VALID,22.8173,VALID,31,VALID,0,
2009-02-24, 03:48:04,VALID,1007.24,VALID,0,VALID,94.3763,VALID,0,VALID,22.8173,VALID,31,VALID,0,
2009-02-24, 03:49:04,VALID,1007.25,VALID,0,VALID,94.3839,VALID,0,VALID,22.8155,VALID,31,VALID,0,
2009-02-24, 03:50:04,VALID,1007.27,VALID,0,VALID,94.3839,VALID,0,VALID,22.8368,VALID,31,VALID,0,
2009-02-24, 03:51:04,VALID,1007.26,VALID,0,VALID,94.3839,VALID,0,VALID,22.8173,VALID,31,VALID,0,
2009-02-24, 03:52:04,VALID,1007.27,VALID,0,VALID,94.3916,VALID,0.105969,VALID,22.7978,VALID,31,VALID,0,
2009-02-24, 03:53:04,VALID,1007.27,VALID,0,VALID,94.3992,VALID,0,VALID,22.8368,VALID,31,VALID,0,